CW7779 Weather Reports


Display with metric or nautical units.
time (UTC)temp
F
wind
direction
speed
MPH
gust
MPH
rain 1hr
in
rain 24hr
in
rain mn
in
humidity
%
barometer
mb
20260508024546 59 8 2.0 12.0 0.00 0.98 0.98 88 1011.4
20260508023041 59 21 2.0 7.0 0.00 0.98 0.98 87 1010.9
20260508021541 60 30 2.0 9.0 0.00 0.98 0.98 88 1010.4
20260508020044 61 34 2.0 13.0 0.00 0.98 0.98 88 1010.0
20260508014535 61 61 1.0 10.0 0.00 0.98 0.98 88 1009.8
20260508013033 62 358 2.0 10.0 0.00 0.98 0.98 88 1009.7
20260508011529 63 28 3.0 10.0 0.00 0.98 0.98 87 1009.3
20260508010026 63 51 1.0 13.0 0.00 0.98 0.98 87 1009.0
20260508004524 64 3 3.0 7.0 0.00 0.98 0.98 86 1008.8
20260508003020 66 25 2.0 10.0 0.00 0.98 0.98 85 1008.3
20260508001516 68 33 1.0 7.0 0.00 0.98 0.98 83 1007.9
20260508000014 72 304 1.0 4.0 0.00 0.98 0.98 82 1007.8
20260507234515 73 250 0.0 4.0 0.00 0.98 0.98 80 1007.6
20260507233028 74 244 1.0 8.0 0.00 0.98 0.98 79 1007.5
20260507231513 74 192 2.0 9.0 0.00 0.98 0.98 78 1007.3
20260507230012 74 253 4.0 10.0 0.00 0.98 0.98 79 1007.3
20260507224512 74 260 4.0 13.0 0.00 0.98 0.98 79 1007.5
20260507223009 73 234 1.0 6.0 0.00 0.98 0.98 83 1007.8
20260507221507 71 252 3.0 8.0 0.00 0.98 0.98 83 1008.0
20260507220007 73 190 4.0 10.0 0.00 0.98 0.98 80 1007.8
20260507214507 73 237 5.0 16.0 0.00 0.98 0.98 80 1007.8
20260507213015 73 241 6.0 20.0 0.00 0.98 0.98 81 1007.3
20260507211504 73 252 5.0 16.0 0.00 0.98 0.98 83 1006.7
20260507210004 72 209 4.0 19.0 0.00 0.98 0.98 85 1006.6
20260507204502 72 202 4.0 11.0 0.00 0.98 0.98 85 1006.9
20260507203000 72 215 5.0 12.0 0.00 0.98 0.98 86 1007.3
20260507201600 71 211 2.0 13.0 0.00 0.98 0.98 88 1007.8
20260507200059 71 261 2.0 6.0 0.00 0.98 0.98 88 1007.9
20260507194620 71 214 1.0 5.0 0.02 0.98 0.98 88 1007.9
20260507193058 71 175 2.0 11.0 0.03 0.98 0.98 87 1008.3
20260507191558 72 207 2.0 9.0 0.05 0.98 0.98 89 1008.5
20260507190057 71 218 0.0 7.0 0.05 0.98 0.98 89 1008.8
20260507184555 70 188 2.0 4.0 0.06 0.96 0.96 89 1009.3
20260507183056 70 316 3.0 6.0 0.05 0.94 0.94 89 1009.3
20260507181558 70 251 1.0 4.0 0.05 0.93 0.93 88 1009.5
20260507180052 69 233 2.0 8.0 0.08 0.92 0.92 88 1009.3
20260507174559 69 205 5.0 17.0 0.16 0.90 0.90 87 1009.9
20260507173124 69 288 4.0 12.0 0.24 0.89 0.89 88 1010.7
20260507171559 69 228 6.0 16.0 0.23 0.88 0.88 87 1010.9
20260507170105 69 234 9.0 20.0 0.19 0.84 0.84 86 1011.2
20260507164553 70 214 2.0 11.0 0.10 0.74 0.74 89 1011.3
20260507163048 71 257 2.0 7.0 0.04 0.65 0.65 89 1010.9
20260507161600 72 205 4.0 9.0 0.06 0.65 0.65 89 1010.7
20260507160045 71 209 2.0 6.0 0.06 0.65 0.65 89 1010.6
20260507154545 71 253 1.0 5.0 0.05 0.64 0.64 89 1010.9
20260507153048 71 257 3.0 9.0 0.01 0.60 0.60 89 1010.7
20260507151546 71 227 3.0 12.0 0.00 0.59 0.59 89 1010.6
20260507150044 71 228 4.0 15.0 0.00 0.59 0.59 89 1010.8
20260507144546 71 179 3.0 9.0 0.00 0.59 0.59 89 1010.4
20260507143044 71 208 4.0 8.0 0.00 0.59 0.59 89 1010.3
20260507141552 71 214 5.0 10.0 0.00 0.59 0.59 89 1010.5
20260507140040 72 216 4.0 17.0 0.01 0.59 0.59 90 1010.4
20260507134539 71 185 8.0 14.0 0.01 0.59 0.59 90 1009.9
20260507133038 70 209 5.0 8.0 0.01 0.59 0.59 90 1010.9
20260507131539 70 216 4.0 11.0 0.01 0.59 0.59 90 1011.5
20260507130038 70 209 5.0 9.0 0.00 0.57 0.57 90 1011.9
20260507124536 70 201 4.0 7.0 0.01 0.57 0.57 90 1012.0
20260507123041 71 205 2.0 5.0 0.05 0.57 0.57 90 1012.0
20260507121541 71 209 2.0 5.0 0.08 0.57 0.57 90 1012.5
20260507120043 71 243 1.0 5.0 0.09 0.56 0.56 90 1013.0
20260507114535 71 236 0.0 5.0 0.22 0.56 0.56 90 1013.3
20260507113041 71 250 2.0 8.0 0.27 0.52 0.52 90 1013.0
20260507111535 70 196 1.0 6.0 0.40 0.49 0.49 90 1012.9
20260507110037 70 236 3.0 9.0 0.41 0.48 0.48 89 1012.9
20260507104532 70 234 4.0 12.0 0.30 0.35 0.35 89 1012.6
20260507103033 70 325 2.0 6.0 0.20 0.24 0.24 89 1012.5
20260507101531 70 264 0.0 2.0 0.06 0.09 0.09 89 1012.0
20260507100036 70 265 0.0 3.0 0.04 0.07 0.07 89 1012.5
20260507094528 70 264 0.0 3.0 0.02 0.05 0.05 89 1012.4
20260507093027 70 265 1.0 2.0 0.01 0.04 0.04 89 1012.2
20260507091527 70 264 0.0 2.0 0.00 0.03 0.03 89 1012.0
20260507090025 70 265 0.0 5.0 0.00 0.03 0.03 89 1012.0
20260507084524 70 221 2.0 6.0 0.00 0.03 0.03 89 1012.0
20260507083025 70 214 1.0 3.0 0.00 0.03 0.03 89 1011.5
20260507081531 70 213 1.0 4.0 0.00 0.03 0.03 88 1011.3
20260507080023 70 210 2.0 6.0 0.00 0.03 0.03 88 1011.7
20260507074529 70 223 1.0 7.0 0.01 0.03 0.03 88 1011.8
20260507073022 70 202 2.0 6.0 0.02 0.03 0.03 88 1012.5
20260507071524 71 206 3.0 7.0 0.03 0.03 0.03 87 1012.5
20260507070018 71 204 2.0 6.0 0.03 0.03 0.03 87 1012.9
20260507064518 71 209 2.0 6.0 0.02 0.02 0.02 87 1013.1
20260507063017 71 223 1.0 6.0 0.01 0.01 0.01 86 1013.5
20260507061523 71 277 2.0 6.0 0.00 0.00 0.00 85 1013.1
20260507060015 71 200 2.0 8.0 0.00 0.00 0.00 85 1013.1
20260507054517 71 228 3.0 13.0 0.00 0.00 0.00 85 1013.2
20260507053021 71 186 2.0 9.0 0.00 0.00 0.00 85 1013.3
20260507051514 71 177 3.0 11.0 0.00 0.00 0.00 85 1013.3
20260507050012 71 202 3.0 7.0 0.00 0.00 0.00 85 1013.4
20260507044511 71 234 3.0 7.0 0.00 0.00 0.00 85 1013.5
20260507043011 71 213 4.0 11.0 0.00 0.00 0.00 85 1013.3
20260507041509 71 196 4.0 10.0 0.00 0.00 0.00 85 1013.2
20260507040008 71 198 4.0 13.0 0.00 0.00 0.00 85 1013.1
20260507034506 71 244 3.0 12.0 0.00 0.00 0.00 85 1013.5
20260507033007 71 233 3.0 10.0 0.00 0.00 0.00 85 1013.6
20260507031506 71 232 3.0 16.0 0.00 0.00 0.00 84 1013.7
20260507030007 71 172 6.0 16.0 0.00 0.00 0.00 84 1013.7